Date,TemperatureHighF,TemperatureAvgF,TemperatureLowF,DewpointHighF,DewpointAvgF,DewpointLowF,HumidityHigh,HumidityAvg,HumidityLow,PressureMaxIn,PressureMinIn,WindSpeedMaxMPH,WindSpeedAvgMPH,GustSpeedMaxMPH,PrecipitationSumIn
2013-3-1,72,57,43,53,46,38,88,69,48,30.32,30.13,0,0,0,0.00
2013-3-2,74,59,46,54,48,41,86,68,46,30.14,29.94,0,0,0,0.00
2013-3-3,66,56,50,50,47,43,81,70,50,30.00,29.91,0,0,0,0.00
2013-3-4,63,52,45,51,44,39,82,75,57,30.04,29.93,0,0,0,0.00
2013-3-5,65,51,42,45,41,36,86,69,47,29.96,29.72,0,0,0,0.07
2013-3-6,57,51,43,45,42,37,87,72,55,29.97,29.72,0,0,0,0.13
2013-3-7,59,48,38,45,40,34,87,74,53,29.89,29.74,0,0,0,0.07
2013-3-8,61,51,43,47,44,40,91,76,55,29.95,29.72,0,0,0,0.03
2013-3-9,69,54,41,46,42,36,87,66,37,30.20,29.94,0,0,0,0.00
2013-3-10,71,54,38,43,38,33,85,60,32,30.24,30.14,0,0,0,0.00
2013-3-11,76,56,40,49,41,34,81,60,38,30.16,29.99,0,0,0,0.00
2013-3-12,77,59,43,54,46,37,83,65,42,30.05,29.94,0,0,0,0.00
2013-3-13,79,62,46,57,50,41,85,67,46,30.07,29.95,0,0,0,0.00
2013-3-14,77,61,49,60,50,44,87,68,40,30.05,29.98,0,0,0,0.00
2013-3-15,74,58,45,55,46,40,81,66,44,30.02,29.93,0,0,0,0.00
2013-3-16,75,58,48,56,47,44,88,68,35,30.01,29.91,0,0,0,0.00
2013-3-17,72,56,44,49,44,38,85,67,41,30.04,29.92,0,0,0,0.00
2013-3-18,70,55,42,51,43,37,85,67,46,30.02,29.91,0,0,0,0.00
2013-3-19,73,56,46,51,45,40,82,67,41,30.03,29.95,0,0,0,0.04
2013-3-20,67,57,51,56,51,46,90,79,59,30.03,29.96,0,0,0,0.04
2013-3-21,68,55,46,49,44,40,82,67,42,30.03,29.90,0,0,0,0.00
2013-3-22,71,54,39,41,33,21,85,52,18,30.00,29.90,0,0,0,0.00
2013-3-23,72,54,38,40,34,31,77,51,25,30.04,29.92,0,0,0,0.00
2013-3-24,76,56,41,50,41,34,77,59,37,29.99,29.84,0,0,0,0.00
2013-3-25,65,53,43,49,43,37,83,70,51,29.91,29.82,0,0,0,0.00
2013-3-26,72,57,47,51,46,41,84,68,47,29.90,29.81,0,0,0,0.00
2013-3-27,69,58,48,54,48,41,82,71,56,29.91,29.85,0,0,0,0.00
2013-3-28,74,62,56,57,52,49,85,71,53,29.98,29.90,0,0,0,0.00
2013-3-29,56,56,56,49,49,49,78,78,77,29.97,29.97,0,0,0,0.00
2013-3-31,58,57,56,52,51,51,84,80,78,29.95,29.92,0,0,0,0.04